FW2272 Weather Reports


Display with metric or nautical units.
time (UTC)temp
F
wind
direction
speed
MPH
gust
MPH
rain 1hr
in
rain 24hr
in
rain mn
in
humidity
%
barometer
mb
20260505181214 80 131 3.0 0.0 0.00 0.00 0.00 78 1011.2
20260505180711 80 235 3.0 0.0 0.00 0.00 0.00 78 1011.2
20260505180215 79 249 4.0 0.0 0.00 0.00 0.00 80 1011.5
20260505175716 79 203 6.0 0.0 0.00 0.00 0.00 80 1011.5
20260505175212 78 185 4.0 0.0 0.00 0.00 0.00 81 1011.5
20260505174709 78 191 2.0 0.0 0.00 0.00 0.00 81 1011.5
20260505174210 78 221 3.0 0.0 0.00 0.00 0.00 83 1011.5
20260505173712 77 166 4.0 0.0 0.00 0.00 0.00 82 1011.5
20260505173211 77 189 3.0 0.0 0.00 0.00 0.00 84 1011.5
20260505172711 77 207 3.0 0.0 0.00 0.00 0.00 84 1011.5
20260505172236 76 201 3.0 0.0 0.00 0.00 0.00 85 1011.5
20260505171734 76 153 5.0 0.0 0.00 0.00 0.00 86 1011.5
20260505171234 76 122 3.0 0.0 0.00 0.00 0.00 87 1011.5
20260505170735 75 123 3.0 0.0 0.00 0.00 0.00 87 1011.5
20260505170234 75 200 3.0 0.0 0.00 0.00 0.00 88 1011.5
20260505165734 75 133 6.0 0.0 0.00 0.00 0.00 88 1011.5
20260505165235 74 307 5.0 0.0 0.00 0.00 0.00 89 1011.5
20260505164734 74 214 5.0 0.0 0.00 0.00 0.00 91 1011.5
20260505164234 74 244 4.0 0.0 0.00 0.00 0.00 91 1011.5
20260505163735 73 202 4.0 0.0 0.00 0.00 0.00 92 1011.5
20260505163234 73 194 2.0 0.0 0.00 0.00 0.00 93 1011.5
20260505162746 72 190 4.0 0.0 0.00 0.00 0.00 93 1011.5
20260505162234 72 203 4.0 0.0 0.00 0.00 0.00 94 1011.5
20260505161735 72 111 3.0 0.0 0.00 0.00 0.00 94 1011.5
20260505161232 72 171 3.0 0.0 0.00 0.00 0.00 94 1011.5
20260505160733 72 226 3.0 0.0 0.00 0.00 0.00 95 1011.9
20260505160232 72 157 2.0 0.0 0.00 0.00 0.00 95 1011.5
20260505153234 71 213 2.0 0.0 0.00 0.00 0.00 96 1011.5
20260505152733 71 216 2.0 0.0 0.00 0.00 0.00 96 1011.5
20260505152233 71 238 3.0 0.0 0.00 0.00 0.00 96 1011.5
20260505151732 71 251 3.0 0.0 0.00 0.00 0.00 96 1011.5
20260505151232 70 184 0.0 0.0 0.00 0.00 0.00 96 1011.5
20260505150735 70 230 3.0 0.0 0.00 0.00 0.00 96 1011.5
20260505150232 70 274 2.0 0.0 0.00 0.00 0.00 96 1011.5
20260505140231 69 210 0.0 0.0 0.00 0.00 0.00 96 1011.5
20260505124728 68 90 3.0 0.0 0.00 0.00 0.00 95 1011.2
20260505124229 69 143 2.0 0.0 0.00 0.00 0.00 95 1011.2
20260505123729 68 199 4.0 0.0 0.00 0.00 0.00 94 1011.2
20260505123229 69 194 5.0 0.0 0.00 0.00 0.00 94 1010.8
20260505122728 68 110 5.0 0.0 0.00 0.00 0.00 94 1010.8
20260505122228 69 221 4.0 0.0 0.00 0.00 0.00 94 1010.8
20260505121730 69 188 4.0 0.0 0.00 0.00 0.00 94 1010.5
20260505121227 68 44 7.0 0.0 0.00 0.00 0.00 94 1010.5
20260505120727 69 109 3.0 0.0 0.00 0.00 0.00 94 1010.5
20260505120226 68 300 7.0 0.0 0.00 0.00 0.00 94 1010.5
20260505115730 69 232 3.0 0.0 0.00 0.00 0.00 94 1010.5
20260505115226 69 344 4.0 0.0 0.00 0.00 0.00 94 1010.5
20260505114727 69 127 4.0 0.0 0.00 0.00 0.00 94 1010.5
20260505114228 69 105 4.0 0.0 0.00 0.00 0.00 94 1010.2
20260505113727 69 235 3.0 0.0 0.00 0.00 0.00 94 1010.2
20260505113226 69 214 3.0 0.0 0.00 0.00 0.00 93 1010.5
20260505112726 69 172 3.0 0.0 0.00 0.00 0.00 94 1010.5
20260505112226 69 186 4.0 0.0 0.00 0.00 0.00 93 1010.2
20260505111728 69 108 4.0 0.0 0.00 0.00 0.00 93 1010.2
20260505111226 69 316 4.0 0.0 0.00 0.00 0.00 93 1010.5
20260505110726 69 55 4.0 0.0 0.00 0.00 0.00 93 1010.5
20260505110225 69 120 3.0 0.0 0.00 0.00 0.00 93 1010.5
20260505101725 69 141 3.0 0.0 0.00 0.00 0.00 93 1010.5
20260505101223 69 140 3.0 0.0 0.00 0.00 0.00 93 1010.5
20260505100727 69 296 4.0 0.0 0.00 0.00 0.00 93 1010.5
20260505100226 69 118 3.0 0.0 0.00 0.00 0.00 93 1010.5
20260505095726 69 288 4.0 0.0 0.00 0.00 0.00 93 1010.5
20260505095222 69 138 4.0 0.0 0.00 0.00 0.00 93 1010.5
20260505094724 69 327 5.0 0.0 0.00 0.00 0.00 93 1010.5
20260505094226 69 137 4.0 0.0 0.00 0.00 0.00 93 1010.5
20260505093724 69 190 4.0 0.0 0.00 0.00 0.00 93 1010.8
20260505093223 69 215 5.0 0.0 0.00 0.00 0.00 92 1010.8
20260505092723 69 173 5.0 0.0 0.00 0.00 0.00 92 1010.8
20260505092223 69 214 3.0 0.0 0.00 0.00 0.00 92 1010.8
20260505091726 69 106 3.0 0.0 0.00 0.00 0.00 92 1010.8
20260505091223 69 142 3.0 0.0 0.00 0.00 0.00 92 1010.8
20260505090723 69 129 5.0 0.0 0.00 0.00 0.00 92 1010.8
20260505090224 69 137 3.0 0.0 0.00 0.00 0.00 92 1010.8
20260505085722 69 185 4.0 0.0 0.00 0.00 0.00 92 1010.5
20260505085221 69 304 5.0 0.0 0.00 0.00 0.00 92 1010.8
20260505084721 69 169 3.0 0.0 0.00 0.00 0.00 92 1010.8
20260505084221 69 123 4.0 0.0 0.00 0.00 0.00 92 1010.8
20260505083722 69 183 3.0 0.0 0.00 0.00 0.00 92 1010.8
20260505083223 69 280 4.0 0.0 0.00 0.00 0.00 92 1010.8
20260505082721 69 199 6.0 0.0 0.00 0.00 0.00 92 1010.8
20260505082222 69 40 6.0 0.0 0.00 0.00 0.00 92 1011.2
20260505081722 69 95 7.0 0.0 0.00 0.00 0.00 91 1011.2
20260505081223 69 105 5.0 0.0 0.00 0.00 0.00 91 1011.2
20260505080722 69 108 4.0 0.0 0.00 0.00 0.00 91 1011.2
20260505080223 69 100 4.0 0.0 0.00 0.00 0.00 91 1011.2
20260505075722 69 178 5.0 0.0 0.00 0.00 0.00 91 1011.2
20260505075220 69 199 4.0 0.0 0.00 0.00 0.00 91 1011.5
20260505074719 69 156 5.0 0.0 0.00 0.00 0.00 91 1011.2
20260505074221 69 158 7.0 0.0 0.00 0.00 0.00 91 1011.2
20260505073720 69 71 4.0 0.0 0.00 0.00 0.00 91 1011.5
20260505073220 69 99 8.0 0.0 0.00 0.00 0.00 91 1011.5
20260505072721 69 75 6.0 0.0 0.00 0.00 0.00 91 1011.9
20260505072221 69 101 6.0 0.0 0.00 0.00 0.00 91 1011.9
20260505071721 69 140 5.0 0.0 0.00 0.00 0.00 90 1011.9
20260505071221 70 153 5.0 0.0 0.00 0.00 0.00 90 1011.9
20260505070722 70 195 5.0 0.0 0.00 0.00 0.00 90 1012.2
20260505070220 70 107 8.0 0.0 0.00 0.00 0.00 90 1012.2
20260505065720 70 115 6.0 0.0 0.00 0.00 0.00 90 1011.9
20260505065221 70 116 4.0 0.0 0.00 0.00 0.00 90 1012.2
20260505064720 70 297 5.0 0.0 0.00 0.00 0.00 90 1012.2
20260505064219 70 138 5.0 0.0 0.00 0.00 0.00 89 1012.2
20260505063719 70 151 6.0 0.0 0.00 0.00 0.00 89 1012.2
20260505063220 70 174 6.0 0.0 0.00 0.00 0.00 89 1012.2
20260505062719 70 128 5.0 0.0 0.00 0.00 0.00 89 1012.2
20260505062223 70 21 6.0 0.0 0.00 0.00 0.00 89 1012.2
20260505061721 70 98 5.0 0.0 0.00 0.00 0.00 89 1012.2
20260505061219 70 203 6.0 0.0 0.00 0.00 0.00 89 1012.2
20260505060719 70 86 8.0 0.0 0.00 0.00 0.00 89 1012.2
20260505060217 70 105 7.0 0.0 0.00 0.00 0.00 88 1012.5
20260505055719 70 128 6.0 0.0 0.00 0.00 0.00 88 1012.5
20260505055217 71 56 7.0 0.0 0.00 0.00 0.00 88 1012.5
20260505054717 71 153 5.0 0.0 0.00 0.00 0.00 88 1012.5
20260505054217 71 74 5.0 0.0 0.00 0.00 0.00 88 1012.5
20260505053718 71 109 5.0 0.0 0.00 0.00 0.00 88 1012.5
20260505053217 71 115 5.0 0.0 0.00 0.00 0.00 88 1012.5
20260505052717 71 108 7.0 0.0 0.00 0.00 0.00 88 1012.5
20260505052216 71 63 7.0 0.0 0.00 0.00 0.00 88 1012.2
20260505051719 71 81 6.0 0.0 0.00 0.00 0.00 88 1012.5
20260505051219 71 144 6.0 0.0 0.00 0.00 0.00 87 1012.2
20260505050718 71 175 5.0 0.0 0.00 0.00 0.00 87 1012.5
20260505050217 71 120 5.0 0.0 0.00 0.00 0.00 87 1012.2
20260505041718 72 121 7.0 0.0 0.00 0.00 0.00 84 1012.5
20260505041218 72 142 5.0 0.0 0.00 0.00 0.00 84 1012.5
20260505040719 72 192 5.0 0.0 0.00 0.00 0.00 83 1012.5
20260505040214 72 72 5.0 0.0 0.00 0.00 0.00 83 1012.5
20260505035716 72 141 4.0 0.0 0.00 0.00 0.00 83 1012.5
20260505035215 72 156 3.0 0.0 0.00 0.00 0.00 82 1012.2
20260505034714 72 45 4.0 0.0 0.00 0.00 0.00 82 1012.2
20260505034216 72 45 4.0 0.0 0.00 0.00 0.00 81 1012.2
20260505033715 72 236 3.0 0.0 0.00 0.00 0.00 81 1012.2
20260505033218 72 299 4.0 0.0 0.00 0.00 0.00 81 1012.2
20260505032716 72 152 3.0 0.0 0.00 0.00 0.00 81 1012.2
20260505032215 72 190 3.0 0.0 0.00 0.00 0.00 81 1012.2
20260505031716 72 217 3.0 0.0 0.00 0.00 0.00 81 1012.2
20260505031214 72 193 4.0 0.0 0.00 0.00 0.00 81 1012.2
20260505030713 72 213 3.0 0.0 0.00 0.00 0.00 80 1012.2
20260505030215 72 165 3.0 0.0 0.00 0.00 0.00 80 1012.2
20260505025715 72 192 3.0 0.0 0.00 0.00 0.00 80 1012.2
20260505025213 72 189 2.0 0.0 0.00 0.00 0.00 79 1012.2
20260505024716 72 183 3.0 0.0 0.00 0.00 0.00 79 1012.2
20260505024213 72 195 1.0 0.0 0.00 0.00 0.00 79 1012.2
20260505023714 72 210 2.0 0.0 0.00 0.00 0.00 79 1012.2
20260505023212 72 198 2.0 0.0 0.00 0.00 0.00 79 1012.2
20260505022714 72 181 2.0 0.0 0.00 0.00 0.00 78 1012.2
20260505022217 72 187 2.0 0.0 0.00 0.00 0.00 77 1012.2
20260505021713 72 208 2.0 0.0 0.00 0.00 0.00 77 1012.2
20260505021212 73 175 1.0 0.0 0.00 0.00 0.00 76 1012.2
20260505020712 73 171 2.0 0.0 0.00 0.00 0.00 75 1011.9
20260505020214 73 177 2.0 0.0 0.00 0.00 0.00 75 1011.9
20260505015714 74 199 2.0 0.0 0.00 0.00 0.00 74 1011.9
20260505015214 74 168 2.0 0.0 0.00 0.00 0.00 74 1011.9
20260505014712 74 204 3.0 0.0 0.00 0.00 0.00 73 1011.9
20260505014212 75 228 2.0 0.0 0.00 0.00 0.00 72 1011.9
20260505013712 75 164 3.0 0.0 0.00 0.00 0.00 72 1011.9
20260505013213 75 195 2.0 0.0 0.00 0.00 0.00 71 1011.9
20260505012713 75 163 3.0 0.0 0.00 0.00 0.00 71 1011.9
20260505012212 75 160 3.0 0.0 0.00 0.00 0.00 71 1011.9
20260505011712 76 38 5.0 0.0 0.00 0.00 0.00 71 1011.9
20260505011214 76 206 3.0 0.0 0.00 0.00 0.00 71 1011.9
20260505010712 76 203 3.0 0.0 0.00 0.00 0.00 70 1011.9
20260505010214 76 126 4.0 0.0 0.00 0.00 0.00 70 1011.9
20260505005712 77 132 4.0 0.0 0.00 0.00 0.00 70 1011.9
20260505005212 77 181 3.0 0.0 0.00 0.00 0.00 69 1011.9
20260505004712 77 72 6.0 0.0 0.00 0.00 0.00 69 1011.9
20260505004213 77 170 5.0 0.0 0.00 0.00 0.00 68 1011.9
20260505003714 77 90 5.0 0.0 0.00 0.00 0.00 68 1011.5
20260505003211 78 144 8.0 0.0 0.00 0.00 0.00 68 1011.5
20260505002712 78 73 8.0 0.0 0.00 0.00 0.00 67 1011.5
20260505002210 78 138 7.0 0.0 0.00 0.00 0.00 67 1011.5
20260505001714 78 132 7.0 0.0 0.00 0.00 0.00 66 1011.5
20260505001214 78 87 7.0 0.0 0.00 0.00 0.00 66 1011.5
20260505000715 78 113 6.0 0.0 0.00 0.00 0.00 67 1011.5
20260505000214 78 196 6.0 0.0 0.00 0.00 0.00 66 1011.5
20260504235714 78 83 9.0 0.0 0.00 0.00 0.00 65 1011.5
20260504235212 78 112 6.0 0.0 0.00 0.00 0.00 65 1011.9
20260504234712 79 191 4.0 0.0 0.00 0.00 0.00 66 1011.9
20260504234212 79 195 5.0 0.0 0.00 0.00 0.00 65 1011.9
20260504233712 79 86 7.0 0.0 0.00 0.00 0.00 64 1011.9
20260504233215 80 100 7.0 0.0 0.00 0.00 0.00 64 1012.2
20260504232714 80 145 6.0 0.0 0.00 0.00 0.00 64 1012.2
20260504232215 80 103 8.0 0.0 0.00 0.00 0.00 64 1012.2
20260504231710 80 200 5.0 0.0 0.00 0.00 0.00 64 1012.2
20260504231212 80 61 9.0 0.0 0.00 0.00 0.00 63 1012.2
20260504230711 80 126 6.0 0.0 0.00 0.00 0.00 63 1012.5
20260504230212 80 209 5.0 0.0 0.00 0.00 0.00 63 1012.5
20260504225717 80 39 6.0 0.0 0.00 0.00 0.00 64 1012.5
20260504225212 80 283 6.0 0.0 0.00 0.00 0.00 65 1012.5
20260504224710 80 169 5.0 0.0 0.00 0.00 0.00 64 1012.9
20260504224212 80 195 4.0 0.0 0.00 0.00 0.00 65 1012.9
20260504223712 79 16 5.0 0.0 0.00 0.00 0.00 65 1012.9
20260504223212 79 143 7.0 0.0 0.00 0.00 0.00 64 1012.9
20260504222715 79 288 8.0 0.0 0.00 0.00 0.00 64 1012.9
20260504222213 80 104 7.0 0.0 0.00 0.00 0.00 63 1012.9
20260504221714 80 108 6.0 0.0 0.00 0.00 0.00 64 1012.9
20260504221212 80 112 7.0 0.0 0.00 0.00 0.00 64 1012.9
20260504220711 80 107 4.0 0.0 0.00 0.00 0.00 63 1012.9
20260504220215 80 343 3.0 0.0 0.00 0.00 0.00 65 1012.9
20260504215711 80 186 4.0 0.0 0.00 0.00 0.00 64 1012.9
20260504215210 80 223 3.0 0.0 0.00 0.00 0.00 63 1012.9
20260504214713 80 70 6.0 0.0 0.00 0.00 0.00 63 1012.9
20260504214211 79 104 5.0 0.0 0.00 0.00 0.00 65 1012.9
20260504213714 79 243 6.0 0.0 0.00 0.00 0.00 65 1013.2
20260504213213 79 205 7.0 0.0 0.00 0.00 0.00 65 1013.2
20260504212711 80 22 8.0 0.0 0.00 0.00 0.00 64 1013.2
20260504212214 80 273 6.0 0.0 0.00 0.00 0.00 64 1013.5
20260504211713 80 143 6.0 0.0 0.00 0.00 0.00 64 1013.5
20260504211214 80 136 9.0 0.0 0.00 0.00 0.00 63 1013.5
20260504210713 80 96 5.0 0.0 0.00 0.00 0.00 64 1013.5
20260504210211 79 190 5.0 0.0 0.00 0.00 0.00 66 1013.9
20260504205713 79 75 7.0 0.0 0.00 0.00 0.00 65 1013.9
20260504205212 79 208 6.0 0.0 0.00 0.00 0.00 65 1013.9
20260504204711 79 183 4.0 0.0 0.00 0.00 0.00 65 1013.9
20260504204214 79 107 7.0 0.0 0.00 0.00 0.00 65 1014.2
20260504203710 79 178 6.0 0.0 0.00 0.00 0.00 64 1014.2
20260504203215 79 177 6.0 0.0 0.00 0.00 0.00 66 1014.2
20260504202714 79 102 4.0 0.0 0.00 0.00 0.00 64 1014.2
20260504202210 79 293 6.0 0.0 0.00 0.00 0.00 64 1014.2
20260504201714 79 301 7.0 0.0 0.00 0.00 0.00 64 1014.2
20260504201314 80 141 6.0 0.0 0.00 0.00 0.00 64 1014.6
20260504200212 79 241 6.0 0.0 0.00 0.00 0.00 65 1014.6
20260504195711 79 124 4.0 0.0 0.00 0.00 0.00 64 1014.6
20260504195213 79 41 6.0 0.0 0.00 0.00 0.00 66 1014.9
20260504194715 79 171 6.0 0.0 0.00 0.00 0.00 65 1014.9
20260504194213 79 184 7.0 0.0 0.00 0.00 0.00 63 1014.9
20260504193711 79 316 8.0 0.0 0.00 0.00 0.00 64 1014.9
20260504193211 80 102 7.0 0.0 0.00 0.00 0.00 62 1014.9
20260504192712 80 102 7.0 0.0 0.00 0.00 0.00 62 1014.9
20260504192214 80 286 6.0 0.0 0.00 0.00 0.00 64 1014.9
20260504191710 80 330 7.0 0.0 0.00 0.00 0.00 63 1014.9
20260504191212 80 120 5.0 0.0 0.00 0.00 0.00 63 1015.2
20260504190712 79 171 5.0 0.0 0.00 0.00 0.00 62 1014.9
20260504190214 79 207 6.0 0.0 0.00 0.00 0.00 65 1015.2
20260504185714 78 127 7.0 0.0 0.00 0.00 0.00 67 1015.2
20260504185213 78 51 6.0 0.0 0.00 0.00 0.00 65 1015.2
20260504184712 79 15 7.0 0.0 0.00 0.00 0.00 62 1015.2
20260504184214 81 122 6.0 0.0 0.00 0.00 0.00 62 1015.2
20260504183714 81 147 6.0 0.0 0.00 0.00 0.00 62 1015.6
20260504183213 81 113 7.0 0.0 0.00 0.00 0.00 61 1015.6
20260504182714 81 290 5.0 0.0 0.00 0.00 0.00 62 1015.6
20260504182216 80 72 8.0 0.0 0.00 0.00 0.00 64 1015.6
20260504181711 80 194 8.0 0.0 0.00 0.00 0.00 62 1015.6